池谷-村上彗星

P/2010 V1 ( Ikeya-Murakami )

English version
Home page
Updated on September 3, 2011

---------------------------------------------------------------------

・ プロフィール

発見日 2010年11月2日、3日
発見光度 8.5等、9等
発見者 池谷薫(静岡県)、村上茂樹(新潟県)

・ 写真集

・ 軌道要素

Epoch 2010 Oct. 11.0 TT = JDT 2455480.5
T 2010 Oct. 13.11783 TT                                 MPC
q   1.5775651            (2000.0)            P               Q
n   0.18319725     Peri.  152.29253     -0.91382632     -0.40596117
a   3.0703655      Node     3.80534     +0.33590808     -0.77056708
e   0.4861963      Incl.    9.37968     +0.22822627     -0.49134703
P   5.38
From 400 observations 2010 Nov. 3-2011 Jan. 10, mean residual 0".6.

・ 星図

・ 光度変化

        H = 17  G = 0.15                         [  ,22]  (              〜2010年11月 2日)
        m1 = -27 + 5 logΔ + 100 log r(t + 150)  [22,  ]  (2010年11月 2日〜              )

---------------------------------------------------------------------

軌道要素はM.P.E.C. 2011-D36に掲載されたものです。
星図はステラナビゲータ Ver.8 (アストロアーツ) で作成したものです。
光度グラフはComet for Windowsで作成したものです。

---------------------------------------------------------------------

Copyright(C) Seiichi Yoshida (comet@aerith.net). All rights reserved.